sat.trackr.live / text

‹ back to catalog

ONEWEB-0256

NORAD 48974 · 2021-060H

PAYLOAD ACTIVE UNKNOWN

§ Identity

Operator
Country
UK
Launch date
2021-07-01
Launch site
VOSTO
Launch vehicle
Mass (kg)
RCS (m²)

Purposes: comms

External: N2YO · Heavens-Above · Gunter

§ Orbital elements

Epoch: 2026-09-20T03:25:14.132352Z

Period
109.37 min
Inclination
87.9153°
Eccentricity
0.0001721
Mean motion
13.16582635 rev/d
Perigee alt
1,196.5 km
Apogee alt
1,199.1 km
Semi-major
7,575.9 km
B*
-3.7633e-3
RAAN
209.9285°
Arg perigee
71.9100°
Mean anomaly
288.2218°
Rev number
25,212

§ Raw data

ONEWEB-02561 48974U 21060H   26263.14252468 -.00001425  00000+0 -37633-2 0  99992 48974  87.9153 209.9285 0001721  71.9100 288.2218 13.16582635252124

JSON: /api/v1/satellites/48974 · /tle

For live sub-satellite position, see the globe view (requires WebGL).

§ Visibility from observer

Set your observer location to see the next 7 days of passes ≥ 10°. The values pass through the URL so the page stays shareable.

No JS? Fill the form by hand. The geolocation button needs JavaScript.